Time,TemperatureF,DewpointF,PressureIn,WindDirection,WindDirectionDegrees,WindSpeedMPH,WindSpeedGustMPH,Humidity,HourlyPrecipIn,Conditions,Clouds,dailyrainin,SoftwareType,DateUTC
2013-05-20 00:03:00,63.0,60.0,29.00,SW,216,0.0,0.0,90,0.00,,SKC,0.00,VWS V14.00,2013-05-20 04:03:00,
2013-05-20 00:08:00,62.8,59.8,29.00,SW,216,0.0,0.0,90,0.00,,SKC,0.00,VWS V14.00,2013-05-20 04:08:00,
2013-05-20 00:13:00,62.8,59.8,29.00,SW,216,0.0,0.0,90,0.00,,SKC,0.00,VWS V14.00,2013-05-20 04:13:00,
2013-05-20 00:18:00,62.8,59.8,29.00,SW,216,0.0,0.0,90,0.00,,SKC,0.00,VWS V14.00,2013-05-20 04:18:00,
2013-05-20 00:23:00,62.8,59.8,29.00,SW,216,0.0,0.0,90,0.00,,SKC,0.00,VWS V14.00,2013-05-20 04:23:00,
2013-05-20 00:28:00,62.8,59.8,29.00,SW,216,0.0,0.0,90,0.00,,SKC,0.00,VWS V14.00,2013-05-20 04:28:00,
2013-05-20 00:33:00,62.6,59.6,29.00,SW,216,0.0,0.0,90,0.00,,SKC,0.00,VWS V14.00,2013-05-20 04:33:00,
2013-05-20 00:38:00,62.6,59.6,29.00,SW,216,0.0,0.0,90,0.00,,SKC,0.00,VWS V14.00,2013-05-20 04:38:00,
2013-05-20 00:43:00,62.6,59.6,29.00,SW,216,0.0,0.0,90,0.00,,SKC,0.00,VWS V14.00,2013-05-20 04:43:00,
2013-05-20 00:48:00,62.6,59.6,29.00,SW,216,0.0,0.0,90,0.00,,SKC,0.00,VWS V14.00,2013-05-20 04:48:00,
2013-05-20 00:53:00,62.6,59.6,29.00,SW,216,0.0,0.0,90,0.00,,SKC,0.00,VWS V14.00,2013-05-20 04:53:00,
2013-05-20 00:58:00,62.6,59.9,29.00,SW,216,0.0,0.0,91,0.00,,SKC,0.00,VWS V14.00,2013-05-20 04:58:00,
2013-05-20 01:03:00,62.6,59.9,29.00,SW,216,0.0,0.0,91,0.00,,SKC,0.00,VWS V14.00,2013-05-20 05:03:00,
2013-05-20 01:08:00,62.6,59.9,29.00,SW,216,0.0,0.0,91,0.00,,SKC,0.00,VWS V14.00,2013-05-20 05:08:00,
2013-05-20 01:13:00,62.6,59.9,29.00,SW,216,0.0,0.0,91,0.00,,SKC,0.00,VWS V14.00,2013-05-20 05:13:00,
2013-05-20 01:18:00,62.6,59.9,29.00,SW,216,0.0,0.0,91,0.00,,SKC,0.00,VWS V14.00,2013-05-20 05:18:00,
2013-05-20 01:23:00,62.4,59.8,29.00,SW,216,0.0,0.0,91,0.00,,SKC,0.00,VWS V14.00,2013-05-20 05:23:00,
2013-05-20 01:28:00,62.4,59.8,29.00,SW,216,0.0,0.0,91,0.00,,SKC,0.00,VWS V14.00,2013-05-20 05:28:00,
2013-05-20 01:33:00,62.2,59.6,29.00,SW,216,0.0,0.0,91,0.00,,SKC,0.00,VWS V14.00,2013-05-20 05:33:00,
2013-05-20 01:38:00,62.2,59.6,29.00,SW,216,0.0,0.0,91,0.00,,SKC,0.00,VWS V14.00,2013-05-20 05:38:00,
2013-05-20 01:43:00,62.4,59.8,29.00,SW,216,0.0,0.0,91,0.00,,SKC,0.00,VWS V14.00,2013-05-20 05:43:00,
2013-05-20 01:48:00,62.4,59.8,29.00,SW,216,0.0,0.0,91,0.00,,SKC,0.00,VWS V14.00,2013-05-20 05:48:00,
2013-05-20 01:53:00,62.4,59.8,29.00,SW,216,0.0,0.0,91,0.00,,SKC,0.00,VWS V14.00,2013-05-20 05:53:00,
2013-05-20 01:58:00,62.6,59.9,29.00,SW,216,0.0,0.0,91,0.00,,SKC,0.00,VWS V14.00,2013-05-20 05:58:00,
2013-05-20 02:03:00,62.6,59.9,29.00,SW,216,0.0,0.0,91,0.00,,SKC,0.00,VWS V14.00,2013-05-20 06:03:00,
2013-05-20 02:08:00,62.6,59.9,29.00,SW,216,0.0,0.0,91,0.00,,SKC,0.00,VWS V14.00,2013-05-20 06:08:00,
2013-05-20 02:13:00,62.6,59.9,29.00,SW,216,0.0,0.0,91,0.00,,SKC,0.00,VWS V14.00,2013-05-20 06:13:00,
2013-05-20 02:18:00,62.6,59.9,29.00,SW,216,0.0,0.0,91,0.00,,SKC,0.00,VWS V14.00,2013-05-20 06:18:00,
2013-05-20 02:23:00,62.6,59.9,29.00,SW,216,0.0,0.0,91,0.00,,SKC,0.00,VWS V14.00,2013-05-20 06:23:00,
2013-05-20 02:28:00,62.6,59.9,29.00,SW,216,0.0,0.0,91,0.00,,SKC,0.00,VWS V14.00,2013-05-20 06:28:00,
2013-05-20 02:33:00,62.6,59.9,29.00,SW,216,0.0,0.0,91,0.00,,SKC,0.00,VWS V14.00,2013-05-20 06:33:00,
2013-05-20 02:38:00,62.6,59.9,29.00,SW,216,0.0,0.0,91,0.00,,SKC,0.00,VWS V14.00,2013-05-20 06:38:00,
2013-05-20 02:43:00,62.6,59.9,29.00,SW,216,0.0,0.0,91,0.00,,SKC,0.00,VWS V14.00,2013-05-20 06:43:00,
2013-05-20 02:48:00,62.6,59.9,29.00,SW,216,0.0,0.0,91,0.00,,SKC,0.00,VWS V14.00,2013-05-20 06:48:00,
2013-05-20 02:53:00,62.6,59.9,29.00,SW,216,0.0,0.0,91,0.00,,SKC,0.00,VWS V14.00,2013-05-20 06:53:00,
2013-05-20 02:58:00,62.6,59.9,29.00,SW,216,0.0,0.0,91,0.00,,SKC,0.00,VWS V14.00,2013-05-20 06:58:00,
2013-05-20 03:03:00,62.4,60.1,29.00,SW,216,0.0,0.0,92,0.00,,SKC,0.00,VWS V14.00,2013-05-20 07:03:00,
2013-05-20 03:08:00,62.2,59.9,29.00,SW,216,0.0,0.0,92,0.00,,SKC,0.00,VWS V14.00,2013-05-20 07:08:00,
2013-05-20 03:13:00,62.2,59.9,29.00,SW,216,0.0,0.0,92,0.00,,SKC,0.00,VWS V14.00,2013-05-20 07:13:00,
2013-05-20 03:18:00,62.2,59.9,29.00,SW,216,0.0,0.0,92,0.00,,SKC,0.00,VWS V14.00,2013-05-20 07:18:00,
2013-05-20 03:23:00,62.2,59.9,29.00,SW,216,0.0,0.0,92,0.00,,SKC,0.00,VWS V14.00,2013-05-20 07:23:00,
2013-05-20 03:28:00,62.1,59.7,29.00,SW,216,0.0,0.0,92,0.00,,SKC,0.00,VWS V14.00,2013-05-20 07:28:00,
2013-05-20 03:33:00,62.1,59.7,29.00,SW,216,0.0,0.0,92,0.00,,SKC,0.00,VWS V14.00,2013-05-20 07:33:00,
2013-05-20 03:38:00,62.1,59.7,29.00,SW,216,0.0,0.0,92,0.00,,SKC,0.00,VWS V14.00,2013-05-20 07:38:00,
2013-05-20 03:43:00,62.1,59.7,29.00,SW,216,0.0,0.0,92,0.00,,SKC,0.00,VWS V14.00,2013-05-20 07:43:00,
2013-05-20 03:48:00,62.1,59.7,29.00,SW,216,0.0,0.0,92,0.00,,SKC,0.00,VWS V14.00,2013-05-20 07:48:00,
2013-05-20 03:53:00,62.1,59.7,29.00,SW,216,0.0,0.0,92,0.00,,SKC,0.00,VWS V14.00,2013-05-20 07:53:00,
2013-05-20 03:58:00,62.1,59.7,29.00,SW,216,0.0,0.0,92,0.00,,SKC,0.00,VWS V14.00,2013-05-20 07:58:00,
2013-05-20 04:03:00,62.1,59.7,29.00,SW,216,0.0,0.0,92,0.00,,SKC,0.00,VWS V14.00,2013-05-20 08:03:00,
2013-05-20 04:08:00,62.1,59.7,29.00,SW,216,0.0,0.0,92,0.00,,SKC,0.00,VWS V14.00,2013-05-20 08:08:00,
2013-05-20 04:13:00,62.1,59.7,29.00,SW,216,0.0,0.0,92,0.00,,SKC,0.00,VWS V14.00,2013-05-20 08:13:00,
2013-05-20 04:18:00,61.9,59.5,29.00,SW,216,0.0,0.0,92,0.00,,SKC,0.00,VWS V14.00,2013-05-20 08:18:00,
2013-05-20 04:23:00,61.9,59.5,29.00,SW,216,0.0,0.0,92,0.00,,SKC,0.00,VWS V14.00,2013-05-20 08:23:00,
2013-05-20 04:28:00,62.1,59.7,29.00,SW,216,0.0,0.0,92,0.00,,SKC,0.00,VWS V14.00,2013-05-20 08:28:00,
2013-05-20 04:33:00,62.1,59.7,29.00,SW,216,0.0,0.0,92,0.00,,SKC,0.00,VWS V14.00,2013-05-20 08:33:00,
2013-05-20 04:38:00,62.1,59.7,29.00,SW,216,0.0,0.0,92,0.00,,SKC,0.00,VWS V14.00,2013-05-20 08:38:00,
2013-05-20 04:44:00,62.1,59.7,29.00,SW,216,0.0,0.0,92,0.00,,SKC,0.00,VWS V14.00,2013-05-20 08:44:00,
2013-05-20 04:49:00,62.1,59.7,29.00,SW,216,0.0,0.0,92,0.00,,SKC,0.00,VWS V14.00,2013-05-20 08:49:00,
2013-05-20 04:54:00,62.1,59.7,29.00,SW,216,0.0,0.0,92,0.00,,SKC,0.00,VWS V14.00,2013-05-20 08:54:00,
2013-05-20 04:59:00,62.1,59.7,29.00,SW,216,0.0,0.0,92,0.00,,SKC,0.00,VWS V14.00,2013-05-20 08:59:00,
2013-05-20 05:04:00,62.1,59.7,29.00,SW,216,0.0,0.0,92,0.00,,SKC,0.00,VWS V14.00,2013-05-20 09:04:00,
2013-05-20 05:09:00,62.1,59.7,29.00,SW,216,0.0,0.0,92,0.00,,SKC,0.00,VWS V14.00,2013-05-20 09:09:00,
2013-05-20 05:14:00,62.1,59.7,29.00,SW,216,0.0,0.0,92,0.00,,SKC,0.00,VWS V14.00,2013-05-20 09:14:00,
2013-05-20 05:19:00,62.1,59.7,29.00,SW,216,0.0,0.0,92,0.00,,SKC,0.00,VWS V14.00,2013-05-20 09:19:00,
2013-05-20 05:24:00,62.1,59.7,29.00,SW,216,0.0,0.0,92,0.00,,SKC,0.00,VWS V14.00,2013-05-20 09:24:00,
2013-05-20 05:29:00,62.1,59.7,29.00,SW,216,0.0,0.0,92,0.00,,SKC,0.00,VWS V14.00,2013-05-20 09:29:00,
2013-05-20 05:34:00,62.1,59.7,29.00,SW,216,0.0,0.0,92,0.00,,SKC,0.00,VWS V14.00,2013-05-20 09:34:00,
2013-05-20 05:39:00,62.1,59.7,29.00,SW,216,0.0,0.0,92,0.00,,SKC,0.00,VWS V14.00,2013-05-20 09:39:00,
2013-05-20 05:44:00,62.1,59.7,29.00,SW,216,0.0,0.0,92,0.00,,SKC,0.00,VWS V14.00,2013-05-20 09:44:00,
2013-05-20 05:49:00,62.1,59.7,29.00,SW,216,0.0,0.0,92,0.00,,SKC,0.00,VWS V14.00,2013-05-20 09:49:00,
2013-05-20 05:54:00,62.1,59.7,29.00,SW,216,0.0,0.0,92,0.00,,SKC,0.00,VWS V14.00,2013-05-20 09:54:00,
2013-05-20 05:59:00,62.1,59.7,29.00,SW,216,0.0,0.0,92,0.00,,SKC,0.00,VWS V14.00,2013-05-20 09:59:00,
2013-05-20 06:04:00,62.1,59.7,29.03,SW,216,0.0,0.0,92,0.00,,SKC,0.00,VWS V14.00,2013-05-20 10:04:00,
2013-05-20 06:09:00,62.1,59.7,29.03,SW,216,0.0,0.0,92,0.00,,SKC,0.00,VWS V14.00,2013-05-20 10:09:00,
2013-05-20 06:14:00,62.1,59.7,29.03,SW,216,0.0,0.0,92,0.00,,SKC,0.00,VWS V14.00,2013-05-20 10:14:00,
2013-05-20 06:19:00,62.1,59.7,29.03,SW,216,0.0,0.0,92,0.00,,SKC,0.00,VWS V14.00,2013-05-20 10:19:00,
2013-05-20 06:24:00,62.1,59.7,29.03,SW,216,0.0,0.0,92,0.00,,SKC,0.00,VWS V14.00,2013-05-20 10:24:00,
2013-05-20 06:29:00,62.1,59.7,29.03,SW,216,0.0,0.0,92,0.00,,SKC,0.00,VWS V14.00,2013-05-20 10:29:00,
2013-05-20 06:34:00,61.9,59.5,29.03,SW,216,0.0,0.0,92,0.00,,SKC,0.00,VWS V14.00,2013-05-20 10:34:00,
2013-05-20 06:39:00,61.9,59.5,29.03,SW,216,0.0,0.0,92,0.00,,SKC,0.00,VWS V14.00,2013-05-20 10:39:00,
2013-05-20 06:44:00,61.9,59.8,29.03,SW,216,0.0,0.0,93,0.00,,SKC,0.00,VWS V14.00,2013-05-20 10:44:00,
2013-05-20 06:49:00,61.9,59.8,29.03,SW,216,0.0,0.0,93,0.00,,SKC,0.00,VWS V14.00,2013-05-20 10:49:00,
2013-05-20 06:54:00,62.1,60.0,29.03,SW,216,0.0,0.0,93,0.00,,SKC,0.00,VWS V14.00,2013-05-20 10:54:00,
2013-05-20 06:59:00,62.1,60.0,29.03,SW,216,0.0,0.0,93,0.00,,SKC,0.00,VWS V14.00,2013-05-20 10:59:00,
2013-05-20 07:04:00,62.1,60.0,29.03,SW,216,0.0,0.0,93,0.00,,SKC,0.00,VWS V14.00,2013-05-20 11:04:00,
2013-05-20 07:09:00,62.2,60.2,29.03,SW,216,0.0,0.0,93,0.00,,SKC,0.00,VWS V14.00,2013-05-20 11:09:00,
2013-05-20 07:14:00,62.2,60.2,29.03,SW,216,0.0,0.0,93,0.00,,SKC,0.00,VWS V14.00,2013-05-20 11:14:00,
2013-05-20 07:19:00,62.4,60.4,29.03,SW,216,0.0,0.0,93,0.00,,SKC,0.00,VWS V14.00,2013-05-20 11:19:00,
2013-05-20 07:24:00,62.4,60.4,29.03,SW,216,0.0,0.0,93,0.00,,SKC,0.00,VWS V14.00,2013-05-20 11:24:00,
2013-05-20 07:29:00,62.6,60.5,29.03,SW,216,0.0,0.0,93,0.00,,SKC,0.00,VWS V14.00,2013-05-20 11:29:00,
2013-05-20 07:34:00,62.8,60.7,29.06,SW,216,0.0,0.0,93,0.00,,SKC,0.00,VWS V14.00,2013-05-20 11:34:00,
2013-05-20 07:39:00,63.0,60.9,29.06,SW,216,0.0,0.0,93,0.00,,SKC,0.00,VWS V14.00,2013-05-20 11:39:00,
2013-05-20 07:44:00,63.0,60.9,29.06,SW,216,0.0,0.0,93,0.00,,SKC,0.00,VWS V14.00,2013-05-20 11:44:00,
2013-05-20 07:49:00,63.0,60.9,29.03,SW,216,0.0,0.0,93,0.00,,SKC,0.00,VWS V14.00,2013-05-20 11:49:00,
2013-05-20 07:54:00,63.0,60.9,29.03,SW,216,0.0,0.0,93,0.00,,SKC,0.00,VWS V14.00,2013-05-20 11:54:00,
2013-05-20 07:59:00,63.0,60.9,29.03,SW,216,0.0,0.0,93,0.00,,SKC,0.00,VWS V14.00,2013-05-20 11:59:00,
2013-05-20 08:04:00,63.1,61.1,29.06,SW,216,0.0,0.0,93,0.00,,SKC,0.00,VWS V14.00,2013-05-20 12:04:00,
2013-05-20 08:09:00,63.5,61.4,29.06,SW,216,0.0,0.0,93,0.00,,SKC,0.00,VWS V14.00,2013-05-20 12:09:00,
2013-05-20 08:14:00,63.7,61.6,29.06,NNE,33,0.0,0.0,93,0.00,,SKC,0.00,VWS V14.00,2013-05-20 12:14:00,
2013-05-20 08:19:00,63.9,61.8,29.03,SW,225,0.0,0.0,93,0.00,,SKC,0.00,VWS V14.00,2013-05-20 12:19:00,
2013-05-20 08:24:00,64.0,62.0,29.03,SW,226,0.0,0.0,93,0.00,,SKC,0.00,VWS V14.00,2013-05-20 12:24:00,
2013-05-20 08:29:00,64.4,62.3,29.03,SW,226,0.0,0.0,93,0.00,,SKC,0.00,VWS V14.00,2013-05-20 12:29:00,
2013-05-20 08:34:00,64.6,62.5,29.06,SW,226,0.0,0.0,93,0.00,,SKC,0.00,VWS V14.00,2013-05-20 12:34:00,
2013-05-20 08:39:00,64.9,62.9,29.06,SW,226,0.0,0.0,93,0.00,,SKC,0.00,VWS V14.00,2013-05-20 12:39:00,
2013-05-20 08:44:00,65.1,63.0,29.06,SW,226,0.0,0.0,93,0.00,,SKC,0.00,VWS V14.00,2013-05-20 12:44:00,
2013-05-20 08:49:00,65.3,63.2,29.06,SW,226,0.0,0.0,93,0.00,,SKC,0.00,VWS V14.00,2013-05-20 12:49:00,
2013-05-20 08:54:00,65.5,63.4,29.06,SW,226,0.0,0.0,93,0.00,,SKC,0.00,VWS V14.00,2013-05-20 12:54:00,
2013-05-20 08:59:00,65.7,63.6,29.06,East,97,0.0,0.0,93,0.00,,SKC,0.00,VWS V14.00,2013-05-20 12:59:00,
2013-05-20 09:04:00,65.8,63.8,29.06,East,97,0.0,0.0,93,0.00,,SKC,0.00,VWS V14.00,2013-05-20 13:04:00,
2013-05-20 09:09:00,66.0,63.9,29.06,East,96,0.0,0.0,93,0.00,,SKC,0.00,VWS V14.00,2013-05-20 13:09:00,
2013-05-20 09:14:00,66.0,63.9,29.06,East,97,0.0,0.0,93,0.00,,SKC,0.00,VWS V14.00,2013-05-20 13:14:00,
2013-05-20 09:19:00,66.2,64.1,29.09,East,96,0.0,0.0,93,0.00,,SKC,0.00,VWS V14.00,2013-05-20 13:19:00,
2013-05-20 09:24:00,66.2,64.1,29.09,East,97,0.0,0.0,93,0.00,,SKC,0.00,VWS V14.00,2013-05-20 13:24:00,
2013-05-20 09:29:00,66.2,64.1,29.09,East,97,0.0,0.0,93,0.00,,SKC,0.00,VWS V14.00,2013-05-20 13:29:00,
2013-05-20 09:34:00,66.2,64.1,29.09,East,97,0.0,0.0,93,0.00,,SKC,0.00,VWS V14.00,2013-05-20 13:34:00,
2013-05-20 09:39:00,66.6,64.5,29.09,East,100,0.0,0.0,93,0.00,,SKC,0.00,VWS V14.00,2013-05-20 13:39:00,
2013-05-20 09:44:00,66.6,64.5,29.09,ESE,103,0.0,0.0,93,0.00,,SKC,0.00,VWS V14.00,2013-05-20 13:44:00,
2013-05-20 09:49:00,66.7,64.7,29.09,NE,45,0.0,0.0,93,0.00,,SKC,0.00,VWS V14.00,2013-05-20 13:49:00,
2013-05-20 09:54:00,66.7,64.7,29.09,NE,43,0.0,0.0,93,0.00,,SKC,0.00,VWS V14.00,2013-05-20 13:54:00,
2013-05-20 09:59:00,66.9,64.8,29.09,NNE,25,0.0,0.0,93,0.00,,SKC,0.00,VWS V14.00,2013-05-20 13:59:00,
2013-05-20 10:04:00,67.1,65.0,29.09,NNE,25,0.0,0.0,93,0.00,,SKC,0.00,VWS V14.00,2013-05-20 14:04:00,
2013-05-20 10:09:00,67.3,65.2,29.09,NNE,25,0.0,0.0,93,0.00,,SKC,0.00,VWS V14.00,2013-05-20 14:09:00,
2013-05-20 10:14:00,67.5,65.4,29.09,NNE,25,0.0,0.0,93,0.00,,SKC,0.00,VWS V14.00,2013-05-20 14:14:00,
2013-05-20 10:19:00,67.8,65.7,29.09,NNE,25,0.0,0.0,93,0.00,,SKC,0.00,VWS V14.00,2013-05-20 14:19:00,
2013-05-20 10:24:00,68.2,65.8,29.09,NNE,25,0.0,0.0,92,0.00,,SKC,0.00,VWS V14.00,2013-05-20 14:24:00,
2013-05-20 10:29:00,68.7,66.3,29.09,South,177,0.0,0.0,92,0.00,,SKC,0.00,VWS V14.00,2013-05-20 14:29:00,
2013-05-20 10:40:00,69.4,67.0,29.09,ENE,76,0.0,0.0,92,0.00,,SKC,0.00,VWS V14.00,2013-05-20 14:40:00,
2013-05-20 10:45:00,69.8,67.1,29.09,SSW,200,0.0,0.0,91,0.00,,SKC,0.00,VWS V14.00,2013-05-20 14:45:00,
2013-05-20 10:50:00,70.0,67.2,29.09,NNE,31,3.8,4.5,91,0.00,,SKC,0.00,VWS V14.00,2013-05-20 14:50:00,
2013-05-20 10:55:00,70.0,67.2,29.09,NNE,27,0.0,3.1,91,0.00,,SKC,0.00,VWS V14.00,2013-05-20 14:55:00,
2013-05-20 11:00:00,70.2,67.1,29.09,North,357,0.0,3.1,90,0.00,,SKC,0.00,VWS V14.00,2013-05-20 15:00:00,
2013-05-20 11:05:00,70.5,67.4,29.09,ENE,76,0.0,0.0,90,0.00,,SKC,0.00,VWS V14.00,2013-05-20 15:05:00,
2013-05-20 11:10:00,70.9,67.5,29.09,SSW,204,0.0,3.1,89,0.00,,SKC,0.00,VWS V14.00,2013-05-20 15:10:00,
2013-05-20 11:15:00,71.6,68.2,29.09,NE,50,0.0,3.6,89,0.00,,SKC,0.00,VWS V14.00,2013-05-20 15:15:00,
2013-05-20 11:20:00,71.8,68.0,29.09,South,190,0.0,3.6,88,0.00,,SKC,0.00,VWS V14.00,2013-05-20 15:20:00,
2013-05-20 11:25:00,72.3,68.6,29.09,SSW,211,0.0,3.1,88,0.00,,SKC,0.00,VWS V14.00,2013-05-20 15:25:00,
2013-05-20 11:30:00,72.7,68.9,29.09,NNE,13,3.2,3.2,88,0.00,,SKC,0.00,VWS V14.00,2013-05-20 15:30:00,
2013-05-20 11:35:00,72.7,68.6,29.09,NE,37,3.8,4.0,87,0.00,,SKC,0.00,VWS V14.00,2013-05-20 15:35:00,
2013-05-20 11:40:00,72.9,68.4,29.09,SSW,200,0.0,4.0,86,0.00,,SKC,0.00,VWS V14.00,2013-05-20 15:40:00,
2013-05-20 11:45:00,73.2,69.1,29.09,NE,36,0.0,2.7,87,0.00,,SKC,0.00,VWS V14.00,2013-05-20 15:45:00,
2013-05-20 11:50:00,73.6,69.1,29.09,NE,39,0.0,3.6,86,0.00,,SKC,0.00,VWS V14.00,2013-05-20 15:50:00,
2013-05-20 11:55:00,73.8,69.0,29.09,SSW,200,0.0,4.0,85,0.00,,SKC,0.00,VWS V14.00,2013-05-20 15:55:00,
2013-05-20 12:00:00,74.3,69.8,29.09,SSW,200,0.0,4.0,86,0.00,,SKC,0.00,VWS V14.00,2013-05-20 16:00:00,
2013-05-20 12:05:00,74.7,69.9,29.09,NE,38,0.0,0.0,85,0.00,,SKC,0.00,VWS V14.00,2013-05-20 16:05:00,
2013-05-20 12:10:00,75.2,70.0,29.09,NNE,31,0.0,3.6,84,0.00,,SKC,0.00,VWS V14.00,2013-05-20 16:10:00,
2013-05-20 12:15:00,75.6,70.4,29.09,NNE,31,0.0,0.0,84,0.00,,SKC,0.00,VWS V14.00,2013-05-20 16:15:00,
2013-05-20 12:20:00,76.1,70.6,29.06,SE,140,0.0,3.6,83,0.00,,SKC,0.00,VWS V14.00,2013-05-20 16:20:00,
2013-05-20 12:25:00,76.5,70.9,29.06,East,99,0.0,0.0,83,0.00,,SKC,0.00,VWS V14.00,2013-05-20 16:25:00,
2013-05-20 12:30:00,77.0,71.1,29.06,South,186,0.0,3.6,82,0.00,,SKC,0.00,VWS V14.00,2013-05-20 16:30:00,
2013-05-20 12:35:00,77.4,71.4,29.06,SSW,202,0.0,0.0,82,0.00,,SKC,0.00,VWS V14.00,2013-05-20 16:35:00,
2013-05-20 12:40:00,77.7,71.8,29.06,SW,224,0.0,3.1,82,0.00,,SKC,0.00,VWS V14.00,2013-05-20 16:40:00,
2013-05-20 12:45:00,78.3,72.0,29.06,NE,36,0.0,3.1,81,0.00,,SKC,0.00,VWS V14.00,2013-05-20 16:45:00,
2013-05-20 12:50:00,78.6,71.9,29.06,NE,36,0.0,0.0,80,0.00,,SKC,0.00,VWS V14.00,2013-05-20 16:50:00,
2013-05-20 12:55:00,79.2,72.5,29.06,SE,141,0.0,4.0,80,0.00,,SKC,0.00,VWS V14.00,2013-05-20 16:55:00,
2013-05-20 13:00:00,79.7,73.0,29.06,SSE,149,0.0,2.7,80,0.00,,SKC,0.00,VWS V14.00,2013-05-20 17:00:00,
2013-05-20 13:05:00,79.9,72.8,29.06,SSE,157,0.0,2.7,79,0.00,,SKC,0.00,VWS V14.00,2013-05-20 17:05:00,
2013-05-20 13:10:00,79.9,72.4,29.06,WNW,299,0.0,0.0,78,0.00,,SKC,0.00,VWS V14.00,2013-05-20 17:10:00,
2013-05-20 13:15:00,80.2,72.8,29.06,WSW,245,0.0,3.1,78,0.00,,SKC,0.00,VWS V14.00,2013-05-20 17:15:00,
2013-05-20 13:20:00,80.6,72.7,29.06,SSW,200,0.0,0.0,77,0.00,,SKC,0.00,VWS V14.00,2013-05-20 17:20:00,
2013-05-20 13:25:00,80.8,72.9,29.06,South,172,0.0,0.0,77,0.00,,SKC,0.00,VWS V14.00,2013-05-20 17:25:00,
2013-05-20 13:30:00,81.0,73.1,29.06,SE,126,4.3,4.9,77,0.00,,SKC,0.00,VWS V14.00,2013-05-20 17:30:00,
2013-05-20 13:35:00,81.5,73.2,29.06,SE,133,0.0,4.9,76,0.00,,SKC,0.00,VWS V14.00,2013-05-20 17:35:00,
2013-05-20 13:40:00,81.9,73.6,29.06,SW,216,0.0,0.0,76,0.00,,SKC,0.00,VWS V14.00,2013-05-20 17:40:00,
2013-05-20 13:45:00,82.2,73.5,29.06,SW,222,0.0,0.0,75,0.00,,SKC,0.00,VWS V14.00,2013-05-20 17:45:00,
2013-05-20 13:50:00,82.4,73.7,29.03,SSW,203,0.0,0.0,75,0.00,,SKC,0.00,VWS V14.00,2013-05-20 17:50:00,
2013-05-20 13:55:00,82.8,73.6,29.03,SSE,162,0.0,4.0,74,0.00,,SKC,0.00,VWS V14.00,2013-05-20 17:55:00,
2013-05-20 14:00:00,83.1,73.6,29.03,SSW,211,0.0,0.0,73,0.00,,SKC,0.00,VWS V14.00,2013-05-20 18:00:00,
2013-05-20 14:05:00,83.3,73.3,29.03,NE,52,0.0,0.0,72,0.00,,SKC,0.00,VWS V14.00,2013-05-20 18:05:00,
2013-05-20 14:10:00,83.5,73.1,29.03,South,178,0.0,0.0,71,0.00,,SKC,0.00,VWS V14.00,2013-05-20 18:10:00,
2013-05-20 14:15:00,83.8,73.8,29.03,North,6,0.0,0.0,72,0.00,,SKC,0.00,VWS V14.00,2013-05-20 18:15:00,
2013-05-20 14:20:00,84.0,73.2,29.03,SSE,168,0.0,0.0,70,0.00,,SKC,0.00,VWS V14.00,2013-05-20 18:20:00,
2013-05-20 14:25:00,83.1,70.6,29.03,NNE,31,0.0,3.6,66,0.00,,SKC,0.00,VWS V14.00,2013-05-20 18:25:00,
2013-05-20 14:30:00,83.1,71.0,29.03,WSW,248,0.0,0.0,67,0.00,,SKC,0.00,VWS V14.00,2013-05-20 18:30:00,
2013-05-20 14:35:00,82.9,71.3,29.03,SSW,193,0.0,0.0,68,0.00,,SKC,0.00,VWS V14.00,2013-05-20 18:35:00,
2013-05-20 14:40:00,82.4,70.8,29.03,SSW,212,0.0,2.2,68,0.00,,SKC,0.00,VWS V14.00,2013-05-20 18:40:00,
2013-05-20 14:45:00,82.6,71.0,29.03,NNW,338,0.0,3.1,68,0.00,,SKC,0.00,VWS V14.00,2013-05-20 18:45:00,
2013-05-20 14:51:00,83.1,71.0,29.03,SSW,206,0.0,0.0,67,0.00,,SKC,0.00,VWS V14.00,2013-05-20 18:51:00,
2013-05-20 14:56:00,83.5,70.5,29.03,North,3,0.0,0.0,65,0.00,,SKC,0.00,VWS V14.00,2013-05-20 18:56:00,
2013-05-20 15:01:00,83.3,70.3,29.03,North,3,0.0,0.0,65,0.00,,SKC,0.00,VWS V14.00,2013-05-20 19:01:00,
2013-05-20 15:06:00,83.1,70.1,29.03,NE,54,0.0,0.0,65,0.00,,SKC,0.00,VWS V14.00,2013-05-20 19:06:00,
2013-05-20 15:11:00,83.1,70.1,29.03,SE,139,0.0,4.0,65,0.00,,SKC,0.00,VWS V14.00,2013-05-20 19:11:00,
2013-05-20 15:16:00,83.3,69.9,29.03,WSW,247,0.0,4.0,64,0.00,,SKC,0.00,VWS V14.00,2013-05-20 19:16:00,
2013-05-20 15:21:00,83.3,69.9,29.03,NNE,26,0.0,0.0,64,0.00,,SKC,0.00,VWS V14.00,2013-05-20 19:21:00,
2013-05-20 15:26:00,83.5,70.0,29.03,NNE,26,0.0,0.0,64,0.00,,SKC,0.00,VWS V14.00,2013-05-20 19:26:00,
2013-05-20 15:31:00,83.8,69.9,29.03,NNE,26,0.0,0.0,63,0.00,,SKC,0.00,VWS V14.00,2013-05-20 19:31:00,
2013-05-20 15:36:00,84.2,69.8,29.00,East,93,0.0,0.0,62,0.00,,SKC,0.00,VWS V14.00,2013-05-20 19:36:00,
2013-05-20 15:41:00,84.4,69.9,29.00,East,93,0.0,0.0,62,0.00,,SKC,0.00,VWS V14.00,2013-05-20 19:41:00,
2013-05-20 15:46:00,84.2,69.8,29.00,NNW,331,0.0,0.0,62,0.00,,SKC,0.00,VWS V14.00,2013-05-20 19:46:00,
2013-05-20 15:51:00,84.0,69.6,29.00,SE,134,0.0,0.0,62,0.00,,SKC,0.00,VWS V14.00,2013-05-20 19:51:00,
2013-05-20 15:56:00,83.8,69.4,29.00,ENE,69,0.0,0.0,62,0.00,,SKC,0.00,VWS V14.00,2013-05-20 19:56:00,
2013-05-20 16:01:00,83.3,68.5,29.00,South,191,3.8,3.8,61,0.00,,SKC,0.00,VWS V14.00,2013-05-20 20:01:00,
2013-05-20 16:06:00,82.8,67.5,29.00,NE,41,0.0,3.1,60,0.00,,SKC,0.00,VWS V14.00,2013-05-20 20:06:00,
2013-05-20 16:11:00,82.4,66.2,29.00,NE,41,0.0,0.0,58,0.00,,SKC,0.00,VWS V14.00,2013-05-20 20:11:00,
2013-05-20 16:16:00,82.6,65.8,29.00,ESE,117,0.0,4.0,57,0.00,,SKC,0.00,VWS V14.00,2013-05-20 20:16:00,
2013-05-20 16:21:00,82.9,67.2,29.00,SE,143,0.0,0.0,59,0.00,,SKC,0.00,VWS V14.00,2013-05-20 20:21:00,
2013-05-20 16:26:00,83.3,67.5,29.00,SE,143,0.0,0.0,59,0.00,,SKC,0.00,VWS V14.00,2013-05-20 20:26:00,
2013-05-20 16:31:00,83.1,67.3,29.00,SSW,207,3.2,4.0,59,0.00,,SKC,0.00,VWS V14.00,2013-05-20 20:31:00,
2013-05-20 16:36:00,82.8,67.0,29.00,SSW,207,0.0,4.0,59,0.00,,SKC,0.00,VWS V14.00,2013-05-20 20:36:00,
2013-05-20 16:41:00,82.6,65.3,29.00,NE,49,0.0,2.7,56,0.00,,SKC,0.00,VWS V14.00,2013-05-20 20:41:00,
2013-05-20 16:46:00,82.4,65.1,29.00,North,349,0.0,2.7,56,0.00,,SKC,0.00,VWS V14.00,2013-05-20 20:46:00,
2013-05-20 16:51:00,82.2,65.5,28.97,ESE,113,0.0,0.0,57,0.00,,SKC,0.00,VWS V14.00,2013-05-20 20:51:00,
2013-05-20 16:56:00,82.0,65.3,28.97,ESE,113,0.0,0.0,57,0.00,,SKC,0.00,VWS V14.00,2013-05-20 20:56:00,
2013-05-20 17:01:00,81.7,65.0,28.97,South,169,0.0,0.0,57,0.00,,SKC,0.00,VWS V14.00,2013-05-20 21:01:00,
2013-05-20 17:06:00,81.3,64.7,28.97,SE,130,0.0,0.0,57,0.00,,SKC,0.00,VWS V14.00,2013-05-20 21:06:00,
2013-05-20 17:11:00,81.0,64.8,28.97,SSE,160,0.0,0.0,58,0.00,,SKC,0.00,VWS V14.00,2013-05-20 21:11:00,
2013-05-20 17:16:00,80.8,64.6,28.97,SSE,166,0.0,0.0,58,0.00,,SKC,0.00,VWS V14.00,2013-05-20 21:16:00,
2013-05-20 17:21:00,80.4,64.8,28.97,SSE,165,0.0,0.0,59,0.00,,SKC,0.00,VWS V14.00,2013-05-20 21:21:00,
2013-05-20 17:26:00,80.2,64.6,28.97,SSE,165,0.0,0.0,59,0.00,,SKC,0.00,VWS V14.00,2013-05-20 21:26:00,
2013-05-20 17:31:00,80.2,64.6,28.97,SSE,165,0.0,0.0,59,0.00,,SKC,0.00,VWS V14.00,2013-05-20 21:31:00,
2013-05-20 17:36:00,80.2,65.1,28.97,SSE,165,0.0,0.0,60,0.00,,SKC,0.00,VWS V14.00,2013-05-20 21:36:00,
2013-05-20 17:41:00,80.1,64.5,28.97,SSE,165,0.0,0.0,59,0.00,,SKC,0.00,VWS V14.00,2013-05-20 21:41:00,
2013-05-20 17:46:00,80.1,64.5,28.97,SSE,151,0.0,0.0,59,0.00,,SKC,0.00,VWS V14.00,2013-05-20 21:46:00,
2013-05-20 17:51:00,80.1,64.5,28.97,SSE,152,0.0,0.0,59,0.00,,SKC,0.00,VWS V14.00,2013-05-20 21:51:00,
2013-05-20 17:56:00,79.9,64.8,28.97,SSE,151,0.0,0.0,60,0.00,,SKC,0.00,VWS V14.00,2013-05-20 21:56:00,
2013-05-20 18:01:00,79.9,64.3,28.97,SSE,152,0.0,0.0,59,0.00,,SKC,0.00,VWS V14.00,2013-05-20 22:01:00,
2013-05-20 18:06:00,79.9,64.3,28.97,NE,34,0.0,0.0,59,0.00,,SKC,0.00,VWS V14.00,2013-05-20 22:06:00,
2013-05-20 18:11:00,79.7,63.6,28.97,SW,229,0.0,4.0,58,0.00,,SKC,0.00,VWS V14.00,2013-05-20 22:11:00,
2013-05-20 18:16:00,79.3,63.8,28.97,SW,236,0.0,4.0,59,0.00,,SKC,0.00,VWS V14.00,2013-05-20 22:16:00,
2013-05-20 18:21:00,79.0,63.4,28.97,SW,236,0.0,0.0,59,0.00,,SKC,0.00,VWS V14.00,2013-05-20 22:21:00,
2013-05-20 18:26:00,78.8,63.3,28.97,South,183,0.0,0.0,59,0.00,,SKC,0.00,VWS V14.00,2013-05-20 22:26:00,
2013-05-20 18:31:00,78.8,63.8,28.97,South,183,0.0,0.0,60,0.00,,SKC,0.00,VWS V14.00,2013-05-20 22:31:00,
2013-05-20 18:36:00,78.8,63.3,28.97,South,171,0.0,0.0,59,0.00,,SKC,0.00,VWS V14.00,2013-05-20 22:36:00,
2013-05-20 18:41:00,78.6,63.1,28.97,SSW,193,0.0,0.0,59,0.00,,SKC,0.00,VWS V14.00,2013-05-20 22:41:00,
2013-05-20 18:46:00,78.4,63.4,28.97,SSW,193,0.0,0.0,60,0.00,,SKC,0.00,VWS V14.00,2013-05-20 22:46:00,
2013-05-20 18:51:00,78.3,63.2,28.97,SSW,193,0.0,0.0,60,0.00,,SKC,0.00,VWS V14.00,2013-05-20 22:51:00,
2013-05-20 18:56:00,78.3,63.7,28.97,SSW,192,0.0,0.0,61,0.00,,SKC,0.00,VWS V14.00,2013-05-20 22:56:00,
2013-05-20 19:01:00,78.1,63.5,28.97,SSW,193,0.0,0.0,61,0.00,,SKC,0.00,VWS V14.00,2013-05-20 23:01:00,
2013-05-20 19:06:00,77.9,63.4,28.94,SSW,193,0.0,0.0,61,0.00,,SKC,0.00,VWS V14.00,2013-05-20 23:06:00,
2013-05-20 19:11:00,77.9,63.4,28.94,SSW,192,0.0,0.0,61,0.00,,SKC,0.00,VWS V14.00,2013-05-20 23:11:00,
2013-05-20 19:16:00,77.7,63.7,28.94,SSW,193,0.0,0.0,62,0.00,,SKC,0.00,VWS V14.00,2013-05-20 23:16:00,
2013-05-20 19:21:00,77.5,63.0,28.94,SSW,209,0.0,0.0,61,0.00,,SKC,0.00,VWS V14.00,2013-05-20 23:21:00,
2013-05-20 19:26:00,77.4,63.3,28.94,SSW,209,0.0,0.0,62,0.00,,SKC,0.00,VWS V14.00,2013-05-20 23:26:00,
2013-05-20 19:31:00,77.2,63.2,28.94,SSW,209,0.0,0.0,62,0.00,,SKC,0.00,VWS V14.00,2013-05-20 23:31:00,
2013-05-20 19:36:00,77.2,63.2,28.94,SSW,209,0.0,0.0,62,0.00,,SKC,0.00,VWS V14.00,2013-05-20 23:36:00,
2013-05-20 19:41:00,77.2,63.6,28.94,SSW,209,0.0,0.0,63,0.00,,SKC,0.00,VWS V14.00,2013-05-20 23:41:00,
2013-05-20 19:46:00,77.2,63.2,28.94,South,173,0.0,0.0,62,0.00,,SKC,0.00,VWS V14.00,2013-05-20 23:46:00,
2013-05-20 19:51:00,77.0,63.5,28.94,South,173,0.0,0.0,63,0.00,,SKC,0.00,VWS V14.00,2013-05-20 23:51:00,
2013-05-20 19:56:00,76.8,63.3,28.94,South,173,0.0,0.0,63,0.00,,SKC,0.00,VWS V14.00,2013-05-20 23:56:00,
2013-05-20 20:01:00,76.8,63.7,28.94,South,173,0.0,0.0,64,0.00,,SKC,0.00,VWS V14.00,2013-05-21 00:01:00,
2013-05-20 20:06:00,76.6,63.6,28.94,South,173,0.0,0.0,64,0.00,,SKC,0.00,VWS V14.00,2013-05-21 00:06:00,
2013-05-20 20:11:00,76.3,63.2,28.94,South,173,0.0,0.0,64,0.00,,SKC,0.00,VWS V14.00,2013-05-21 00:11:00,
2013-05-20 20:17:00,76.1,63.5,28.94,South,173,0.0,0.0,65,0.00,,SKC,0.00,VWS V14.00,2013-05-21 00:17:00,
2013-05-20 20:22:00,75.9,63.3,28.94,South,173,0.0,0.0,65,0.00,,SKC,0.00,VWS V14.00,2013-05-21 00:22:00,
2013-05-20 20:27:00,75.7,63.2,28.94,South,173,0.0,0.0,65,0.00,,SKC,0.00,VWS V14.00,2013-05-21 00:27:00,
2013-05-20 20:32:00,75.6,63.0,28.94,South,173,0.0,0.0,65,0.00,,SKC,0.00,VWS V14.00,2013-05-21 00:32:00,
2013-05-20 20:37:00,75.4,62.8,28.94,South,173,0.0,0.0,65,0.00,,SKC,0.00,VWS V14.00,2013-05-21 00:37:00,
2013-05-20 20:42:00,75.2,63.1,28.94,South,173,0.0,0.0,66,0.00,,SKC,0.00,VWS V14.00,2013-05-21 00:42:00,
2013-05-20 20:47:00,74.8,62.7,28.94,South,173,0.0,0.0,66,0.00,,SKC,0.00,VWS V14.00,2013-05-21 00:47:00,
2013-05-20 20:52:00,74.7,62.6,28.94,South,173,0.0,0.0,66,0.00,,SKC,0.00,VWS V14.00,2013-05-21 00:52:00,
2013-05-20 20:57:00,74.5,62.4,28.94,South,173,0.0,0.0,66,0.00,,SKC,0.00,VWS V14.00,2013-05-21 00:57:00,
2013-05-20 21:02:00,74.1,62.5,28.94,South,173,0.0,0.0,67,0.00,,SKC,0.00,VWS V14.00,2013-05-21 01:02:00,
2013-05-20 21:07:00,73.9,62.3,28.94,South,173,0.0,0.0,67,0.00,,SKC,0.00,VWS V14.00,2013-05-21 01:07:00,
2013-05-20 21:12:00,73.8,62.1,28.94,South,173,0.0,0.0,67,0.00,,SKC,0.00,VWS V14.00,2013-05-21 01:12:00,
2013-05-20 21:17:00,73.6,62.0,28.94,South,173,0.0,0.0,67,0.00,,SKC,0.00,VWS V14.00,2013-05-21 01:17:00,
2013-05-20 21:22:00,73.4,61.8,28.94,South,173,0.0,0.0,67,0.00,,SKC,0.00,VWS V14.00,2013-05-21 01:22:00,
2013-05-20 21:27:00,73.2,62.0,28.94,South,173,0.0,0.0,68,0.00,,SKC,0.00,VWS V14.00,2013-05-21 01:27:00,
2013-05-20 21:32:00,73.0,61.9,28.94,South,173,0.0,0.0,68,0.00,,SKC,0.00,VWS V14.00,2013-05-21 01:32:00,
2013-05-20 21:37:00,72.9,62.1,28.94,South,173,0.0,0.0,69,0.00,,SKC,0.00,VWS V14.00,2013-05-21 01:37:00,
2013-05-20 21:42:00,72.5,61.8,28.94,South,173,0.0,0.0,69,0.00,,SKC,0.00,VWS V14.00,2013-05-21 01:42:00,
2013-05-20 21:47:00,72.3,61.6,28.94,South,173,0.0,0.0,69,0.00,,SKC,0.00,VWS V14.00,2013-05-21 01:47:00,
2013-05-20 21:52:00,72.1,61.4,28.94,South,173,0.0,0.0,69,0.00,,SKC,0.00,VWS V14.00,2013-05-21 01:52:00,
2013-05-20 21:57:00,72.0,61.7,28.94,South,173,0.0,0.0,70,0.00,,SKC,0.00,VWS V14.00,2013-05-21 01:57:00,
2013-05-20 22:02:00,72.0,61.7,28.94,South,173,0.0,0.0,70,0.00,,SKC,0.00,VWS V14.00,2013-05-21 02:02:00,
2013-05-20 22:07:00,71.8,61.5,28.97,South,173,0.0,0.0,70,0.00,,SKC,0.00,VWS V14.00,2013-05-21 02:07:00,
2013-05-20 22:12:00,71.6,61.3,28.97,South,173,0.0,0.0,70,0.00,,SKC,0.00,VWS V14.00,2013-05-21 02:12:00,
2013-05-20 22:17:00,71.2,61.4,28.97,South,173,0.0,0.0,71,0.00,,SKC,0.00,VWS V14.00,2013-05-21 02:17:00,
2013-05-20 22:22:00,71.2,61.4,28.97,South,173,0.0,0.0,71,0.00,,SKC,0.00,VWS V14.00,2013-05-21 02:22:00,
2013-05-20 22:27:00,71.1,61.2,28.97,South,173,0.0,0.0,71,0.00,,SKC,0.00,VWS V14.00,2013-05-21 02:27:00,
2013-05-20 22:32:00,70.9,61.0,28.97,South,173,0.0,0.0,71,0.00,,SKC,0.00,VWS V14.00,2013-05-21 02:32:00,
2013-05-20 22:37:00,70.9,61.4,28.97,South,173,0.0,0.0,72,0.00,,SKC,0.00,VWS V14.00,2013-05-21 02:37:00,
2013-05-20 22:42:00,70.9,61.4,28.97,South,173,0.0,0.0,72,0.00,,SKC,0.00,VWS V14.00,2013-05-21 02:42:00,
2013-05-20 22:47:00,70.7,61.2,28.97,South,173,0.0,0.0,72,0.00,,SKC,0.00,VWS V14.00,2013-05-21 02:47:00,
2013-05-20 22:52:00,70.5,61.1,28.97,South,173,0.0,0.0,72,0.00,,SKC,0.00,VWS V14.00,2013-05-21 02:52:00,
2013-05-20 22:57:00,70.5,61.1,28.97,South,173,0.0,0.0,72,0.00,,SKC,0.00,VWS V14.00,2013-05-21 02:57:00,
2013-05-20 23:02:00,70.5,61.5,28.97,South,173,0.0,0.0,73,0.00,,SKC,0.00,VWS V14.00,2013-05-21 03:02:00,
2013-05-20 23:07:00,70.3,61.3,28.97,South,173,0.0,0.0,73,0.00,,SKC,0.00,VWS V14.00,2013-05-21 03:07:00,
2013-05-20 23:12:00,70.2,61.1,28.97,South,173,0.0,0.0,73,0.00,,SKC,0.00,VWS V14.00,2013-05-21 03:12:00,
2013-05-20 23:17:00,70.2,61.1,28.97,South,173,0.0,0.0,73,0.00,,SKC,0.00,VWS V14.00,2013-05-21 03:17:00,
2013-05-20 23:22:00,70.0,60.9,28.97,South,173,0.0,0.0,73,0.00,,SKC,0.00,VWS V14.00,2013-05-21 03:22:00,
2013-05-20 23:27:00,70.0,61.3,28.97,South,173,0.0,0.0,74,0.00,,SKC,0.00,VWS V14.00,2013-05-21 03:27:00,
2013-05-20 23:32:00,69.8,61.2,28.97,South,173,0.0,0.0,74,0.00,,SKC,0.00,VWS V14.00,2013-05-21 03:32:00,
2013-05-20 23:37:00,69.6,61.3,28.97,South,173,0.0,0.0,75,0.00,,SKC,0.00,VWS V14.00,2013-05-21 03:37:00,
2013-05-20 23:42:00,69.6,61.3,28.97,South,173,0.0,0.0,75,0.00,,SKC,0.00,VWS V14.00,2013-05-21 03:42:00,
2013-05-20 23:47:00,69.4,61.2,28.97,South,173,0.0,0.0,75,0.00,,SKC,0.00,VWS V14.00,2013-05-21 03:47:00,
2013-05-20 23:52:00,69.4,61.2,28.97,South,173,0.0,0.0,75,0.00,,SKC,0.00,VWS V14.00,2013-05-21 03:52:00,
2013-05-20 23:57:00,69.3,61.0,28.97,South,173,0.0,0.0,75,0.00,,SKC,0.00,VWS V14.00,2013-05-21 03:57:00,